CW0965 Weather Reports


Display with metric or nautical units.
time (UTC)temp
F
wind
direction
speed
MPH
gust
MPH
rain 1hr
in
rain 24hr
in
rain mn
in
humidity
%
barometer
mb
20190215154254 8 24 0.0 7.0 0.00 0.00 0.00 85 1017.9
20190215153254 8 24 0.0 7.0 0.00 0.00 0.00 84 1017.9
20190215152754 8 24 0.0 7.0 0.00 0.00 0.00 84 1018.0
20190215151754 8 24 0.0 7.0 0.00 0.00 0.00 84 1018.0
20190215151254 7 24 0.0 2.0 0.00 0.00 0.00 84 1018.1
20190215150754 7 24 0.0 2.0 0.00 0.00 0.00 84 1017.9
20190215150253 7 24 0.0 9.0 0.00 0.00 0.00 84 1017.5
20190215143753 7 24 0.0 0.0 0.00 0.00 0.00 84 1016.7
20190215142753 7 24 0.0 3.0 0.00 0.00 0.00 84 1016.6
20190215141753 7 24 0.0 3.0 0.00 0.00 0.00 84 1016.5
20190215140753 7 24 0.0 3.0 0.00 0.00 0.00 84 1016.3
20190215135753 7 24 0.0 10.0 0.00 0.00 0.00 83 1015.9
20190215135253 7 24 7.0 10.0 0.00 0.00 0.00 82 1015.7
20190215134753 7 24 0.0 10.0 0.00 0.00 0.00 82 1015.6
20190215134253 7 24 0.0 10.0 0.00 0.00 0.00 82 1015.5
20190215133253 8 24 3.0 12.0 0.00 0.00 0.00 82 1015.3
20190215132753 8 24 0.0 12.0 0.00 0.00 0.00 81 1015.2
20190215130253 8 24 0.0 12.0 0.00 0.00 0.00 80 1014.9
20190215125753 8 24 2.0 10.0 0.00 0.00 0.00 80 1014.9
20190215124253 8 24 0.0 10.0 0.00 0.00 0.00 79 1014.8
20190215123753 8 24 0.0 10.0 0.00 0.00 0.00 77 1015.0
20190215123254 8 24 0.0 12.0 0.00 0.00 0.00 76 1015.0
20190215122753 8 24 5.0 12.0 0.00 0.00 0.00 75 1015.0
20190215122253 8 24 2.0 12.0 0.00 0.00 0.00 74 1014.9
20190215121753 8 23 0.0 12.0 0.00 0.00 0.00 74 1014.9
20190215121253 9 23 2.0 12.0 0.00 0.00 0.00 74 1014.9
20190215120253 9 23 10.0 12.0 0.00 0.00 0.00 71 1014.8
20190215115253 9 18 7.0 10.0 0.00 0.00 0.00 69 1014.9
20190215113753 9 18 0.0 9.0 0.00 0.00 0.00 66 1015.0
20190215111252 9 11 0.0 10.0 0.00 0.00 0.00 66 1014.9
20190215110752 9 11 3.0 9.0 0.00 0.00 0.00 66 1014.9
20190215105252 9 11 0.0 10.0 0.00 0.00 0.00 66 1014.7
20190215104752 9 11 2.0 9.0 0.00 0.00 0.00 66 1014.8
20190215103252 9 11 0.0 10.0 0.00 0.00 0.00 65 1015.2
20190215102752 9 11 0.0 10.0 0.00 0.00 0.00 65 1015.1
20190215100753 10 11 0.0 10.0 0.00 0.00 0.00 65 1015.0
20190215100252 10 11 3.0 17.0 0.00 0.00 0.00 65 1014.9
20190215095752 10 11 0.0 17.0 0.00 0.00 0.00 65 1014.9
20190215095253 10 11 0.0 17.0 0.00 0.00 0.00 65 1014.9
20190215094752 10 11 0.0 17.0 0.00 0.00 0.00 65 1014.9
20190215094253 10 11 0.0 17.0 0.00 0.00 0.00 64 1014.6
20190215093752 10 10 2.0 17.0 0.00 0.00 0.00 64 1014.7
20190215092753 10 5 0.0 12.0 0.00 0.00 0.00 64 1014.9
20190215091253 10 5 0.0 10.0 0.00 0.00 0.00 67 1014.9
20190215090753 10 5 5.0 10.0 0.00 0.00 0.00 67 1015.1
20190215085252 10 5 0.0 17.0 0.00 0.00 0.00 66 1015.5
20190215084253 10 11 3.0 17.0 0.00 0.00 0.00 66 1015.2
20190215083753 10 5 14.0 14.0 0.00 0.00 0.00 66 1014.7
20190215083253 10 5 5.0 16.0 0.00 0.00 0.00 66 1014.5
20190215082753 10 5 2.0 16.0 0.00 0.00 0.00 65 1015.1
20190215081752 10 5 0.0 16.0 0.00 0.00 0.00 64 1015.7
20190215080753 11 5 0.0 10.0 0.00 0.00 0.00 64 1015.8
20190215080253 11 5 3.0 12.0 0.00 0.00 0.00 64 1016.0
20190215075252 11 5 0.0 12.0 0.00 0.00 0.00 63 1015.7
20190215074753 11 13 5.0 12.0 0.00 0.00 0.00 64 1015.8
20190215074252 11 15 3.0 12.0 0.00 0.00 0.00 64 1015.6
20190215073753 11 15 0.0 7.0 0.00 0.00 0.00 64 1015.4
20190215073253 11 15 7.0 24.0 0.00 0.00 0.00 65 1015.2
20190215072753 11 15 10.0 24.0 0.00 0.00 0.00 65 1014.8
20190215071752 11 11 7.0 24.0 0.00 0.00 0.00 64 1014.8
20190215071253 11 9 0.0 24.0 0.00 0.00 0.00 63 1014.8
20190215070253 12 15 5.0 19.0 0.00 0.00 0.00 63 1014.7
20190215065753 12 5 2.0 19.0 0.00 0.00 0.00 63 1015.0
20190215065252 12 5 0.0 19.0 0.00 0.00 0.00 62 1015.0
20190215064753 12 5 3.0 19.0 0.00 0.00 0.00 62 1015.5
20190215062752 13 5 7.0 12.0 0.00 0.00 0.00 64 1015.7
20190215061752 13 5 5.0 12.0 0.00 0.00 0.00 65 1016.2
20190215060252 13 360 2.0 12.0 0.00 0.00 0.00 65 1016.3
20190215055252 13 355 3.0 12.0 0.00 0.00 0.00 65 1016.0
20190215053253 14 355 2.0 26.0 0.00 0.00 0.00 64 1015.8
20190215052752 14 360 2.0 26.0 0.00 0.00 0.00 63 1015.8
20190215051752 14 349 16.0 26.0 0.00 0.00 0.00 65 1014.8
20190215051252 14 355 0.0 26.0 0.00 0.00 0.00 64 1014.9